Starlink 31607

operational
NORAD ID: 59394 Int'l Des: 2024-062 Owner: SPXS Country: US Constellation: starlink
LEOCIRCULAR

About Starlink 31607

Description loading...

Live Position

Loading 3D Globe...

Upcoming Passes

Altitude History

Altitude vs Time

uPlot chart will show altitude changes over time

Two-Line Element Set

1 59394U 24062W 25351.07541970 -.00001502 00000-0 -38577-4 0 9997
2 59394 53.1617 279.3352 0001578 110.7819 249.3351 15.30203504 97011
Epoch: Dec 17, 2025 • Age: 17 hours

Current Status

Altitude 475.5 km
Velocity 7.63 km/s
Sub-Earth Point 14.85°N, 86.29°W
Launch Date Apr 2, 2024
Age 1.7 years
Type internet

Technical Details

Classification Payload
Mass 730.00 kg
Dry Mass 700.00 kg
Total Mass 730.00 kg
Length 0.30 m
Diameter 4.10 m
Span 29.00 m
Shape Box + pan
Manufacturer SPXS
Bus Type Starlink V2M
Phase Status In Orbit
Owner/State SPXS/US

Large Constellations

Loading constellations...